Flag for U.S.A. Weather past 2 weeks in Simi Valley, California, U.S.A.

Now
73 °F

Sunny.


Feels Like: 77 °F
Forecast: 52 / 69 °F
Wind: 12 mph from Southeast

Location: Van Nuys Airport

Current Time: May 3, 2015 at 6:04:55 PM

Latest Report: May 3, 2015 at 4:51 PM


Visibility: 10 mi

Pressure: 29.82 "Hg

Humidity: 46%

Dew point: 51 °F

Location of Simi ValleyLocation

Historic Weather in Simi Valley — Graph

°F

Simi Valley temperature yesterday

Maximum temperature yesterday: 88 °F (at 12:51 PM)
Minimum temperature yesterday: 61 °F (at 4:51 AM)
Average temperature yesterday: 74 °F

Past Weeks' High & Low Weather Summary

 TemperatureHumidityPressure
High94 °F (Apr 29, 1:51 PM)89% (Apr 20, 5:57 AM)30.00 "Hg (Apr 20, 5:57 AM)
Low52 °F (Apr 23, 4:51 AM)8% (Apr 27, 1:51 PM)29.78 "Hg (May 2, 3:51 PM)
Average68 °F46%29.88 "Hg
* Reported Apr 18 3:51 PM — May 3 3:51 PM, Simi Valley, Weather by CustomWeather, © 2015

Note: Actual official high and low records may vary slightly from our data, if they occured in-between our weather recording intervals... More about our weather records

Advertising

Simi Valley weather history for previous 24 hours

 ConditionsComfort  
Time TempWeatherWind HumidityBarometerVisibility
3:51 PM
Sun, May 3
73 °FSunny.10 mph46%29.83 "Hg10 mi
2:51 PM74 °FSunny.13 mph46%29.85 "Hg10 mi
1:51 PM74 °FSunny.12 mph46%29.86 "Hg10 mi
12:51 PM77 °FSunny.12 mph40%29.87 "Hg10 mi
11:51 AM75 °FSunny.6 mph39%29.89 "Hg10 mi
10:51 AM70 °FSunny.3 mph47%29.90 "Hg10 mi
9:51 AM64 °FSunny.No wind61%29.90 "Hg10 mi
8:51 AM62 °FPassing clouds.No wind67%29.90 "Hg10 mi
8:01 AM59 °FScattered clouds.No wind75%29.91 "Hg10 mi
6:51 AM57 °FPassing clouds.No wind81%29.88 "Hg10 mi
5:51 AM57 °FPassing clouds.No wind81%29.86 "Hg10 mi
4:51 AM57 °FOvercast.5 mph81%29.86 "Hg10 mi
3:51 AM56 °FClear.No wind81%29.86 "Hg10 mi
2:51 AM57 °FClear.5 mph81%29.86 "Hg10 mi
1:51 AM56 °FClear.5 mph84%29.86 "Hg10 mi
12:51 AM58 °FClear.7 mph75%29.86 "Hg10 mi
11:51 PM
Sat, May 2
61 °FClear.9 mph62%29.85 "Hg10 mi
10:51 PM67 °FClear.9 mph42%29.83 "Hg10 mi
9:51 PM69 °FClear.3 mph29%29.82 "Hg10 mi
8:51 PM71 °FClear.5 mph25%29.80 "Hg10 mi
7:51 PM73 °FSunny.9 mph21%29.78 "Hg10 mi
6:51 PM78 °FSunny.10 mph18%29.78 "Hg10 mi
Weather by CustomWeather, © 2015

See weather overviewHow to use our weather pages